[Date Prev][Date Next][Thread Prev][Thread Next] - [Date Index][Thread Index][Author Index]

2 Line ISS Keps 6-14



ISS
1 25544U 98067A   02165.26612071  .00041220  00000-0  50393-3 0  5593
2 25544  51.6379  67.5517 0005241 197.7549 309.1269 15.59978450203578


----
Via the sarex mailing list at AMSAT.ORG courtesy of AMSAT-NA.
To unsubscribe, send "unsubscribe sarex" to Majordomo@amsat.org



AMSAT Top AMSAT Home